TimeEST,TemperatureF,Dew PointF,Humidity,Sea Level PressureIn,VisibilityMPH,Wind Direction,Wind SpeedMPH,Gust SpeedMPH,PrecipitationIn,Events,Conditions,WindDirDegrees,DateUTC
12:53 AM,26.1,7.0,44,29.99,10.0,West,17.3,26.5,N/A,,Mostly Cloudy,270,2013-11-24 05:53:00
1:53 AM,25.0,6.1,45,29.99,10.0,West,16.1,28.8,N/A,,Scattered Clouds,280,2013-11-24 06:53:00
2:53 AM,24.1,3.9,42,30.01,10.0,WNW,16.1,26.5,N/A,,Mostly Cloudy,290,2013-11-24 07:53:00
3:53 AM,24.1,3.0,40,30.01,10.0,West,12.7,21.9,N/A,,Overcast,280,2013-11-24 08:53:00
4:53 AM,23.0,3.9,44,30.02,10.0,WNW,10.4,-,N/A,,Overcast,290,2013-11-24 09:53:00
5:53 AM,23.0,5.0,46,30.04,10.0,WNW,16.1,24.2,N/A,,Overcast,300,2013-11-24 10:53:00
6:53 AM,23.0,1.9,40,30.06,10.0,West,13.8,20.7,N/A,,Overcast,280,2013-11-24 11:53:00
7:53 AM,23.0,1.9,40,30.08,10.0,WNW,11.5,-,N/A,,Overcast,290,2013-11-24 12:53:00
8:53 AM,23.0,1.9,40,30.12,10.0,NNW,20.7,28.8,N/A,,Overcast,330,2013-11-24 13:53:00
9:53 AM,25.0,1.0,36,30.14,10.0,NNW,16.1,28.8,N/A,,Scattered Clouds,330,2013-11-24 14:53:00
10:53 AM,26.1,-0.0,32,30.13,10.0,WNW,18.4,31.1,N/A,,Clear,300,2013-11-24 15:53:00
11:53 AM,27.0,-2.0,29,30.14,10.0,NW,17.3,27.6,N/A,,Clear,310,2013-11-24 16:53:00
12:53 PM,28.9,-2.9,25,30.15,10.0,WNW,17.3,28.8,N/A,,Clear,300,2013-11-24 17:53:00
1:53 PM,28.9,-2.9,25,30.16,10.0,WNW,21.9,33.4,N/A,,Partly Cloudy,290,2013-11-24 18:53:00
2:53 PM,28.0,-2.0,27,30.19,10.0,WNW,19.6,28.8,N/A,,Partly Cloudy,300,2013-11-24 19:53:00
3:53 PM,27.0,-0.9,30,30.22,10.0,NW,16.1,26.5,N/A,,Partly Cloudy,310,2013-11-24 20:53:00
4:53 PM,25.0,1.9,37,30.25,10.0,WNW,13.8,21.9,N/A,,Partly Cloudy,290,2013-11-24 21:53:00
5:53 PM,25.0,5.0,43,30.26,10.0,WNW,9.2,-,N/A,,Mostly Cloudy,300,2013-11-24 22:53:00
6:53 PM,24.1,12.0,60,30.29,10.0,West,10.4,19.6,N/A,,Overcast,280,2013-11-24 23:53:00
7:53 PM,25.0,5.0,43,30.29,10.0,WNW,16.1,24.2,N/A,,Overcast,300,2013-11-25 00:53:00
8:53 PM,24.1,5.0,44,30.30,10.0,West,10.4,-,N/A,,Mostly Cloudy,280,2013-11-25 01:53:00
9:53 PM,24.1,5.0,44,30.31,10.0,WNW,11.5,-,N/A,,Overcast,300,2013-11-25 02:53:00
10:53 PM,24.1,6.1,46,30.31,10.0,WNW,10.4,-,N/A,,Overcast,290,2013-11-25 03:53:00
11:53 PM,23.0,6.1,48,30.33,10.0,West,9.2,-,N/A,,Mostly Cloudy,270,2013-11-25 04:53:00